Vlieland, Netherlands

5:57 PM CEST on June 27, 2017 (GMT +0200)
Vlieland

Weather History for EHVL - March, 2013

Change the Weather History Date:

Sunday, March 24, 2013

  Actual Average Record
Temperature  
Mean Temperature 30 °F -  
Max Temperature 37 °F 50 °F 57 °F (2003)
Min Temperature 23 °F 41 °F 23 °F (2013)
Degree Days  
Heating Degree Days 35    
Moisture  
Dew Point 14 °F    
Average Humidity 54    
Maximum Humidity 75    
Minimum Humidity 35    
Precipitation  
Precipitation 0.00 in - - ()
Sea Level Pressure  
Sea Level Pressure 30.10 in    
Wind  
Wind Speed 32 mph ()    
Max Wind Speed 40 mph    
Max Gust Speed 45 mph    
Visibility 6.2 miles    
Events      
Averages and records for this station are not official NWS values.
T = Trace of Precipitation, MM = Missing Value Source: Averaged Metar Reports

Daily Weather History Graph

Daily Weather History Graph

Search for Another Location

Airport or City:

Trip Planner

Search our weather history database for the weather conditions in past years. The results will help you decide how hot, cold, wet, or windy it might be!

Date:

Astronomy

Mar. 24, 2013 Rise Set
Actual Time 6:33 AM CET 7:01 PM CET
Civil Twilight 5:58 AM CET 7:36 PM CET
Nautical Twilight 5:16 AM CET 8:17 PM CET
Astronomical Twilight 4:32 AM CET 9:01 PM CET
Moon 3:54 PM CET (3/24) 4:56 AM CET (3/24)
Length of Visible Light 13h 37m
Length of Day
12h 28m
Waxing Gibbous, 90% of the Moon is Illuminated
Mar 24
Waxing Gibbous
Mar 27
Full
Apr 3
Last Quarter
Apr 10
New
Apr 18
First Quarter

Hourly Weather History & Observations

Time (CET) Temp. Windchill Dew Point Humidity Pressure Visibility Wind Dir Wind Speed Gust Speed Precip Events Conditions
12:25 AM 26.6 °F 9.8 °F 10.4 °F 51% 30.12 in 6.2 mi East 32.2 mph - N/A   Mostly Cloudy
12:55 AM 24.8 °F 7.1 °F 12.2 °F 59% 30.12 in 6.2 mi East 33.4 mph 44.9 mph N/A   Unknown
1:25 AM 24.8 °F 7.6 °F 12.2 °F 59% 30.12 in 6.2 mi East 31.1 mph - N/A   Scattered Clouds
1:55 AM 24.8 °F 7.3 °F 12.2 °F 59% 30.12 in 6.2 mi East 32.2 mph - N/A   Mostly Cloudy
2:25 AM 24.8 °F 7.1 °F 10.4 °F 54% 30.09 in 6.2 mi East 33.4 mph - N/A   Unknown
2:55 AM 23.0 °F 4.4 °F 10.4 °F 59% 30.09 in 6.2 mi East 34.5 mph - N/A   Partly Cloudy
3:25 AM 23.0 °F 4.4 °F 8.6 °F 54% 30.09 in 6.2 mi East 34.5 mph - N/A   Mostly Cloudy
3:55 AM 23.0 °F 4.4 °F 8.6 °F 54% 30.09 in 6.2 mi East 34.5 mph - N/A   Overcast
4:25 AM 24.8 °F 6.6 °F 8.6 °F 50% 30.09 in 6.2 mi East 35.7 mph - N/A   Mostly Cloudy
4:55 AM 23.0 °F 4.1 °F 8.6 °F 54% 30.09 in 6.2 mi East 35.7 mph - N/A   Partly Cloudy
5:25 AM 23.0 °F 4.1 °F 6.8 °F 50% 30.09 in 6.2 mi East 35.7 mph - N/A   Partly Cloudy
5:55 AM 23.0 °F 3.7 °F 6.8 °F 50% 30.09 in 6.2 mi East 38.0 mph - N/A   Unknown
6:25 AM 23.0 °F 3.9 °F 6.8 °F 50% 30.12 in 6.2 mi East 36.8 mph - N/A   Unknown
6:55 AM 23.0 °F 3.9 °F 6.8 °F 50% 30.12 in 6.2 mi East 36.8 mph - N/A   Unknown
7:25 AM 23.0 °F 3.4 °F 8.6 °F 54% 30.12 in 6.2 mi East 39.1 mph - N/A   Unknown
7:55 AM 24.8 °F 6.0 °F 8.6 °F 50% 30.12 in 6.2 mi East 39.1 mph - N/A   Unknown
8:25 AM 26.6 °F 8.3 °F 8.6 °F 47% 30.12 in 6.2 mi East 40.3 mph - N/A   Unknown
8:55 AM 26.6 °F 8.5 °F 8.6 °F 47% 30.12 in 6.2 mi East 39.1 mph - N/A   Unknown
9:25 AM 28.4 °F 11.0 °F 8.6 °F 43% 30.12 in 6.2 mi East 39.1 mph - N/A   Overcast
9:55 AM 28.4 °F 11.2 °F 10.4 °F 47% 30.12 in 6.2 mi East 38.0 mph - N/A   Partly Cloudy
10:25 AM 30.2 °F 14.1 °F 10.4 °F 44% 30.12 in 6.2 mi East 35.7 mph - N/A   Unknown
10:55 AM 32.0 °F 16.3 °F 12.2 °F 44% 30.12 in 6.2 mi East 36.8 mph - N/A   Unknown
11:25 AM 32.0 °F 16.3 °F 10.4 °F 41% 30.12 in 6.2 mi East 36.8 mph - N/A   Unknown
11:55 AM 33.8 °F 19.0 °F 10.4 °F 38% 30.12 in 6.2 mi East 35.7 mph - N/A   Overcast
12:25 PM 33.8 °F 19.0 °F 10.4 °F 38% 30.12 in 6.2 mi East 35.7 mph - N/A   Overcast
12:55 PM 35.6 °F 21.1 °F 12.2 °F 38% 30.09 in 6.2 mi East 38.0 mph - N/A   Partly Cloudy
1:25 PM 35.6 °F 21.3 °F 10.4 °F 35% 30.09 in 6.2 mi East 36.8 mph - N/A   Unknown
1:55 PM 35.6 °F 21.3 °F 14.0 °F 41% 30.09 in 6.2 mi East 36.8 mph - N/A   Unknown
2:25 PM 35.6 °F 21.9 °F 15.8 °F 44% 30.09 in 6.2 mi East 33.4 mph - N/A   Overcast
2:55 PM 37.4 °F 24.2 °F 15.8 °F 41% 30.09 in 6.2 mi East 34.5 mph - N/A   Mostly Cloudy
3:25 PM 35.6 °F 21.5 °F 15.8 °F 44% 30.06 in 6.2 mi East 35.7 mph - N/A   Unknown
3:55 PM 37.4 °F 24.0 °F 15.8 °F 41% 30.06 in 6.2 mi East 35.7 mph - N/A   Unknown
4:25 PM 37.4 °F 24.0 °F 15.8 °F 41% 30.06 in 6.2 mi East 35.7 mph - N/A   Partly Cloudy
4:55 PM 35.6 °F 21.9 °F 21.2 °F 56% 30.06 in 6.2 mi East 33.4 mph - N/A   Overcast
5:25 PM 33.8 °F 19.6 °F 23.0 °F 65% 30.06 in 6.2 mi ENE 32.2 mph - N/A   Unknown
5:55 PM 33.8 °F 19.6 °F 21.2 °F 60% 30.06 in 6.2 mi ENE 32.2 mph - N/A   Unknown
6:25 PM 33.8 °F 19.9 °F 21.2 °F 60% 30.06 in 6.2 mi ENE 31.1 mph - N/A   Unknown
6:55 PM 33.8 °F 19.9 °F 23.0 °F 65% 30.06 in 6.2 mi ENE 31.1 mph - N/A   Unknown
7:25 PM 32.0 °F 17.2 °F 23.0 °F 69% 30.09 in 6.2 mi ENE 32.2 mph - N/A   Unknown
7:55 PM 32.0 °F 17.0 °F 23.0 °F 69% 30.09 in 6.2 mi ENE 33.4 mph - N/A   Overcast
8:25 PM 32.0 °F 16.7 °F 23.0 °F 69% 30.09 in 6.2 mi ENE 34.5 mph - N/A   Overcast
8:55 PM 32.0 °F 16.7 °F 23.0 °F 69% 30.09 in 6.2 mi ENE 34.5 mph - N/A   Overcast
9:25 PM 32.0 °F 16.7 °F 23.0 °F 69% 30.09 in 6.2 mi ENE 34.5 mph - N/A   Partly Cloudy
9:55 PM 30.2 °F 13.9 °F 23.0 °F 75% 30.09 in 6.2 mi East 36.8 mph - N/A   Scattered Clouds
10:25 PM 30.2 °F 14.3 °F 23.0 °F 75% 30.09 in 6.2 mi East 34.5 mph - N/A   Unknown
10:55 PM 30.2 °F 14.5 °F 23.0 °F 75% 30.12 in 6.2 mi East 33.4 mph - N/A   Unknown
11:25 PM 30.2 °F 14.7 °F 23.0 °F 75% 30.12 in 6.2 mi East 32.2 mph - N/A   Unknown
11:55 PM 30.2 °F 14.9 °F 23.0 °F 75% 30.12 in 6.2 mi East 31.1 mph - N/A   Unknown